EHI
0 0 0 0 0 0 0 0 0 0 0 0 0 0 0 0 0 0 0 0 0 0 0 0 0 0 0 0 0 0 0 0 0 0 0 0 0 0 0 0 0 0 0 0
0 0 0 0 0 0 0 0 0 0 0 0 0 0 0 0 0 0 0 0 0 0 0 0 0 0 0 0 0 0 0 0 0 0 0 0 0 0 0 0 0 0 0 0
0 0 0 0 0 0 0 0 0 0 0 0 0 0 0 0 0 0 0 0 0 0 0 0 0 0 0 0 0 0 0 0 0 0 0 0 0 0 0 0 0 0 0 0
0 0 0 0 0 0 0 0 0 0 0 0 0 0 0 0 0 0 0 0 0 0 0 0 0 0 0 0 0 0 0 0 0 0 0 0 0 0 0 0 0 0 0 0
0 0 0 0 0 0 0 0 0 0 0 0 0 0 0 0 0 0 0 0 0 0 0 0 0 0 0 0 0 0 0 0 0 0 0 0 0 0 0 0 0 0 0 0
0 0 0 0 0 0 0 0 0 0 0 0 0 0 0 0 0 0 0 0 0 0 0 0 0 0 0 0 0 0 0 0 0 0 0 0 0 0 0 0 0 0 0 0
0 0 0 0 0 0 0 0 0 0 0 0 0 0 0 0 0 0 0 0 0 0 0 0 0 0 0 0 0 0 0 0 0 0 0 0 0 0 0 0 0 0 0 0
0 0 0 0 0 0 0 0 0 0 0 0 0 0 0 0 0 0 0 0 0 0 0 0 0 0 0 0 0 0 0 0 0 0 0 0 0 0 0 0 0 0 0 0
0 0 0 0 0 0 0 0 0 0 0 0 0 0 0 0 0 0 0 0 0 0 0 0 0 0 0 0 0 0 0 0 0 0 0 0 0 0 0 0 0 0 0 0
0 0 0 0 0 0 0 0 0 0 0 0 0 0 0 0 0 0 0 0 0 0 0 0 0 0 0 0 0 0 0 0 0 0 0 0 0 0 0 0 0 0 0 0
0 0 0 0 0 0 0 0 0 0 0 0 0 0 0 0 0 0 0 0 0 0 0 0 0 0 0 0 0 0 0 0 0 0 0 0 0 0 0 0 0 0 0 0
0 0 0 0 0 0 0 0 0 0 0 0 0 0 0 0 0 0 0 0 0 0 0 0 0 0 0 0 0 0 0 0 0 0 0 0 0 0 0 0 0 0 0 0
0 0 0 0 0 0 0 0 0 0 0 0 0 0 0 0 0 0 0 0 0 0 0 0 0 0 0 0 0 0 0 0 0 0 0 0 0 0 0 0 0 0 0 0
0 0 0 0 0 0 0 0 0 0 0 0 0 0 0 0 0 0 0 0 0 0 0 0 0 0 0 0 0 0 0 0 0 0 0 0 0 0 0 0 0 0 0 0
0 0 0 0 0 0 0 0 0 0 0 0 0 0 0 0 0 0 0 0 0 0 0 0 0 0 0 0 0 0 0 0 0 0 0 0 0 0 0 0 0 0 0 0
0 0 0 0 0 0 0 0 0 0 0 0 0 0 0 0 0 0 0 0 0 0 0 0 0 0 0 0 0 0 0 0 0 0 0 0 0 0 0 0 0 0 0 0
0 0 0 0 0 0 0 0 0 0 0 0 0 0 0 0 0 0 0 0 0 0 0 0 0 0 0 0 0 0 0 0 0 0 0 0 0 0 0 0 0 0 0 0
0 0 0 0 0 0 0 0 0 0 0 0 0 0 0 0 0 0 0 0 0 0 0 0 0 0 0 0 0 0 0 0 0 0 0 0 0 0 0 0 0 0 0 0
0 0 0 0 0 0 0 0 0 0 0 0 0 0 0 0 0 0 0 0 0 0 0 0 0 0 0 0 0 0 0 0 0 0 0 0 0 0 0 0 0 0 0 0
0 0 0 0 0 0 0 0 0 0 0 0 0 0 0 0 0 0 0 0 0 0 0 0 0 0 0 0 0 0 0 0 0 0 0 0 0 0 0 0 0 0 0 0
0 0 0 0 0 0 0 0 0 0 0 0 0 0 0 0 0 0 0 0 0 0 0 0 0 0 0 0 0 0 0 0 0 0 0 0 0 0 0 0 0 0 0 0
0 0 0 0 0 0 0 0 0 0 0 0 0 0 0 0 0 0 0 0 0 0 0 0 0 0 0 0 0 0 0 0 0 0 0 0 0 0 0 0 0 0 0 0
0 0 0 0 0 0 0 0 0 0 0 0 0 0 0 0 0 0 0 0 0 0 0 0 0 0 0 0 0 0 0 0 0 0 0 0 0 0 0 0 0 0 0 0
0 0 0 0 0 0 0 0 0 0 0 0 0 0 0 0 0 0 0 0 0 0 0 0 0 0 0 0 0 0 0 0 0 0 0 0 0 0 0 0 0 0 0 0
0 0 0 0 0 0 0 0 0 0 0 0 0 0 0 0 0 0 0 0 0 0 0 0 0 0 0 0 0 0 0 0 0 0 0 0 0 0 0 0 0 0 0 0
0 0 0 0 0 0 0 0 0 0 0 0 0 0 0 0 0 0 0 0 0 0 0 0 0 0 0 0 0 0 0 0 0 0 0 0 0 0 0 0 0 0 0 0
0 0 0 0 0 0 0 0 0 0 0 0 0 0 0 0 0 0 0 0 0 0 0 0 0 0 0 0 0 0 0 0 0 0 0 0 0 0 0 0 0 0 0 0
Wind_Speed
8 8 6 8 9 7 9 9 10 11 10 12 8 6 5 5 4 3 4 4 4 4 4 3 3 3 3 3 3 3 2 3 3 3 3 2 2 3 4 4 5 5 5 5
7 6 6 10 11 10 10 10 11 12 13 10 7 4 4 4 4 4 5 5 4 4 4 4 4 4 3 3 3 3 3 3 3 3 2 3 3 3 3 4 4 4 5 5
6 5 5 9 9 8 7 6 6 10 9 4 4 4 4 4 4 5 5 5 4 4 5 5 5 4 4 3 3 2 3 3 3 3 3 3 3 3 3 4 4 5 5 5
3 3 7 7 1 3 5 5 6 6 5 4 5 5 4 3 4 5 5 5 5 5 5 5 4 3 3 2 2 2 3 3 3 3 3 3 3 3 3 3 4 5 5 5
2 4 10 7 2 2 4 6 4 6 6 5 4 4 4 2 2 4 4 5 4 4 4 4 4 3 2 2 2 2 3 3 3 3 3 3 3 3 3 3 3 4 4 5
3 4 8 6 2 1 2 6 4 4 5 3 2 3 5 3 3 4 4 4 4 3 3 4 4 3 2 2 2 3 4 4 3 3 3 4 4 3 3 3 3 3 3 4
5 7 10 6 1 2 2 7 3 3 4 3 4 5 4 3 4 3 4 4 3 3 3 3 4 3 3 3 4 4 3 3 3 3 3 3 3 3 2 2 2 3 3 4
5 6 11 2 4 5 7 2 1 2 2 3 4 4 3 3 3 3 4 4 3 3 3 4 3 3 3 4 4 3 2 2 2 3 3 2 2 2 2 2 3 3 3 3
9 9 4 4 5 4 1 2 2 2 3 3 4 4 4 3 3 3 3 4 3 3 4 4 3 2 3 4 3 2 2 2 2 2 2 2 2 2 2 2 3 3 3 3
6 8 5 4 4 3 2 3 3 3 3 3 4 5 4 3 3 3 3 3 3 3 4 5 4 4 3 4 3 2 2 3 2 2 2 2 2 2 2 3 3 3 3 4
7 7 5 5 5 5 4 3 2 2 2 3 3 4 4 3 3 3 3 3 2 3 3 5 5 4 4 3 3 2 2 3 3 2 2 2 2 2 3 4 4 4 4 3
8 5 5 5 3 3 3 3 3 3 3 2 2 4 3 3 3 3 3 3 3 3 4 4 4 5 4 3 2 2 2 3 2 2 2 2 2 2 4 4 6 7 7 6
7 4 4 5 4 2 2 3 3 3 3 4 3 3 3 3 3 3 3 3 3 4 4 4 4 4 4 4 3 2 3 3 2 2 2 2 2 2 2 3 4 5 6 6
5 3 4 4 4 4 3 3 2 2 2 2 2 2 2 3 3 3 4 4 3 3 4 3 4 5 5 4 3 3 3 3 3 2 2 2 2 2 2 2 2 3 4 4
4 4 5 4 3 3 2 1 1 2 3 3 2 2 2 3 4 4 4 3 3 3 3 3 4 5 5 4 3 3 2 2 2 2 2 2 2 2 2 2 2 2 2 3
4 3 3 3 3 3 2 1 2 4 3 3 3 3 3 3 3 3 3 2 2 3 4 4 4 4 4 3 3 2 2 4 3 2 1 1 1 1 1 1 2 2 2 2
3 4 4 4 4 4 4 3 4 4 4 4 4 3 3 2 2 3 3 3 3 3 3 4 4 4 4 3 2 2 2 2 4 2 1 1 1 1 1 1 1 2 2 3
5 6 5 5 4 4 4 4 3 4 4 4 2 2 2 2 3 3 3 3 3 3 4 4 4 3 3 3 2 2 1 1 2 2 2 2 1 1 1 1 2 2 2 2
3 4 3 3 3 3 4 4 4 3 3 2 1 2 2 3 3 3 2 2 2 4 4 4 5 3 3 3 3 1 1 1 1 2 1 2 2 2 2 1 1 2 2 2
2 2 2 2 2 2 3 3 3 2 2 1 1 1 2 2 2 2 2 2 3 3 4 4 3 2 2 2 3 1 1 1 1 1 1 1 1 1 1 1 1 2 2 2
2 2 1 1 2 2 2 2 2 2 2 1 1 2 2 2 2 1 1 3 4 3 3 4 2 2 2 2 2 1 1 1 1 1 1 1 1 1 1 1 1 2 2 1
2 2 2 1 1 2 2 1 1 1 1 1 1 1 1 2 2 2 2 3 3 5 3 2 2 3 3 2 1 0 0 1 1 1 1 1 1 1 1 1 1 1 1 1
2 2 2 2 2 2 1 1 1 1 1 1 1 2 2 2 1 2 3 3 3 5 3 2 4 5 4 1 1 1 1 1 1 1 1 1 1 1 1 1 1 1 1 2
1 1 1 1 0 0 1 2 1 1 1 1 2 2 1 1 2 2 2 4 5 5 3 4 6 5 4 1 1 1 1 1 1 1 1 1 1 1 1 1 2 2 2 2
1 1 1 1 1 1 1 1 1 1 1 1 2 2 1 1 2 2 2 3 4 4 2 4 5 5 3 1 1 1 1 2 2 1 1 1 1 1 2 2 2 2 2 2
1 1 2 2 2 1 1 1 1 1 1 1 2 2 1 1 2 2 2 2 3 4 3 2 3 3 2 1 1 2 2 2 2 2 2 2 2 2 2 2 3 2 2 2
1 1 0 0 1 1 1 1 1 1 1 1 2 2 1 1 1 2 2 2 2 2 2 2 2 2 2 2 2 2 2 2 2 2 2 2 2 2 2 3 3 3 3 3
Wind_Direction
258 266 258 256 256 238 222 221 229 250 253 269 277 273 276 283 290 306 307 302 289 284 283 284 285 282 278 281 280 275 264 257 254 253 243 233 232 229 221 217 218 215 216 221
281 274 264 268 260 244 241 239 242 259 270 269 281 286 285 290 290 287 290 294 295 294 292 287 284 284 279 277 280 278 262 262 265 255 245 238 237 234 230 222 220 217 219 219
275 302 320 275 248 221 221 220 212 235 250 278 293 288 281 281 278 276 281 286 289 289 283 284 283 282 273 270 281 276 267 269 265 254 246 245 246 233 235 236 227 223 226 221
278 342 257 248 221 198 211 245 231 244 269 273 267 278 281 280 278 284 288 289 290 291 294 297 296 293 286 275 265 262 265 267 267 258 251 253 247 241 238 238 235 232 228 224
217 258 274 289 266 192 213 272 234 238 268 287 305 320 298 294 281 277 286 285 281 284 289 302 305 302 301 289 272 266 266 265 265 259 254 249 246 247 245 237 238 239 238 222
194 233 253 261 273 233 128 281 253 216 252 273 334 310 286 313 322 310 307 303 302 311 320 320 314 315 311 296 287 274 272 271 269 258 248 243 245 249 246 238 238 240 251 239
216 238 261 264 256 111 180 260 281 219 241 231 225 240 273 305 309 307 312 316 321 325 324 316 320 324 306 297 278 276 282 280 276 268 258 250 248 247 240 244 240 238 248 254
189 221 254 219 140 190 228 279 276 260 259 247 253 275 289 294 301 310 319 324 328 328 323 324 329 325 315 303 299 300 290 287 285 282 275 266 248 254 245 231 237 240 243 257
200 220 249 180 205 235 254 257 257 252 271 263 265 276 286 291 293 298 304 312 324 324 321 324 327 326 308 310 322 326 320 301 293 292 286 278 259 254 250 235 234 242 240 248
248 259 258 250 261 288 281 265 267 260 265 256 263 275 283 285 291 294 300 307 322 328 324 320 325 326 315 319 325 325 315 309 304 294 289 279 267 256 244 232 234 238 241 245
251 271 293 268 252 261 277 283 284 288 275 264 261 276 282 288 287 284 297 308 314 309 304 308 319 318 320 324 329 323 312 304 303 295 284 277 274 260 257 244 239 239 237 238
241 234 228 261 274 267 259 265 263 273 292 286 261 269 284 285 284 283 292 307 310 308 307 310 317 317 321 324 321 311 305 303 297 294 292 289 288 304 295 281 276 269 264 258
247 264 249 270 289 284 257 270 276 259 259 278 282 270 278 287 294 293 295 296 291 294 300 307 315 315 316 315 311 296 289 296 299 301 300 297 295 297 312 325 315 298 286 278
248 253 265 267 274 287 281 279 279 282 280 275 284 296 292 294 300 294 287 284 289 296 298 302 308 307 310 311 305 301 297 297 301 295 293 288 282 283 288 298 314 321 315 297
249 236 242 267 285 297 308 329 325 308 308 310 306 300 294 288 287 287 292 299 305 304 303 309 309 308 315 312 307 305 303 295 292 291 291 289 287 289 293 297 302 311 325 327
253 252 248 254 268 285 301 290 280 285 290 290 292 286 281 279 286 295 305 312 301 298 302 303 301 304 312 315 313 309 299 307 310 304 306 309 310 304 301 303 306 308 309 313
222 245 246 257 263 270 268 261 256 265 273 274 276 283 291 297 305 308 309 305 288 284 290 292 297 307 314 312 303 300 308 316 327 330 322 309 305 303 302 300 300 305 307 310
220 230 233 235 242 256 268 269 263 265 265 269 278 287 284 279 282 290 301 315 319 312 306 300 303 309 313 313 309 307 312 314 318 322 322 323 325 324 327 322 318 317 325 336
232 233 238 238 240 243 255 263 267 268 274 269 256 263 271 277 282 292 305 319 318 312 313 310 317 327 317 313 322 313 317 324 330 328 333 339 353 350 338 329 327 327 332 343
243 241 239 250 252 244 256 266 271 278 280 263 255 276 293 293 295 301 301 290 282 282 298 311 309 311 313 314 328 318 307 316 322 328 339 344 341 340 342 341 341 339 341 346
246 246 246 253 274 279 265 259 256 270 284 267 238 251 271 293 299 291 295 298 300 300 303 316 328 317 310 309 312 329 337 331 325 317 318 317 319 325 331 333 336 333 329 332
243 238 244 251 267 291 295 279 252 255 272 282 281 284 294 305 308 299 273 269 294 313 324 315 315 315 320 327 7 25 346 322 312 307 304 298 298 306 314 320 320 319 322 325
244 235 239 245 247 268 304 299 261 240 247 256 259 265 266 269 266 275 294 296 298 312 323 312 316 322 333 9 31 3 329 311 298 291 288 287 285 286 293 302 302 306 308 307
237 233 236 242 208 222 289 295 294 280 269 274 269 260 257 278 289 270 269 296 311 319 323 318 328 332 345 21 4 333 310 295 286 282 281 282 286 287 286 289 292 296 297 298
233 230 209 192 212 242 253 281 332 331 321 314 309 303 283 257 262 287 295 292 302 322 323 319 327 337 351 342 324 304 295 283 275 274 272 275 276 278 281 282 281 285 288 288
222 224 231 232 230 236 229 210 240 274 288 303 312 312 310 306 295 296 305 312 311 320 328 320 320 323 320 308 298 292 289 299 307 300 280 274 272 272 274 276 279 277 276 276
242 232 240 276 272 239 220 208 222 250 252 254 284 294 298 307 313 315 316 318 320 319 313 310 310 309 305 300 296 293 293 290 284 279 276 271 268 266 269 268 270 271 271 271